RYR2GA LEAL-LEIB

Flight info

Callsign RYR2GA
Flight time 0h 22m
Altitude 16000
Route MITOS N851 RUXET
Aircraft B738/M-SDE2E3FGHIRWXY/LB1

Departure

Time 2026-05-07 17:05
Airport Alicante-Elche Miguel Hernández Airport (LEAL)

Arrival

Time 2026-05-07 17:27
Airport Ibiza Airport (LEIB)
Time Latitude Longitude Altitude Speed Heading
2026-05-07 16:37 38.28524 -0.55232 90 ft 0 kts 11°
2026-05-07 16:55 38.28509 -0.55235 91 ft 4 kts 10°
2026-05-07 16:55 38.28483 -0.55240 88 ft 4 kts 359°
2026-05-07 16:55 38.28458 -0.55235 89 ft 4 kts 329°
2026-05-07 16:56 38.28443 -0.55215 88 ft 2 kts 280°
2026-05-07 16:56 38.28442 -0.55213 88 ft 0 kts 279°
2026-05-07 16:59 38.28446 -0.55239 88 ft 7 kts 279°
2026-05-07 16:59 38.28456 -0.55313 91 ft 10 kts 280°
2026-05-07 17:00 38.28471 -0.55415 96 ft 13 kts 280°
2026-05-07 17:00 38.28485 -0.55520 97 ft 9 kts 281°
2026-05-07 17:00 38.28474 -0.55590 98 ft 9 kts 218°
2026-05-07 17:00 38.28399 -0.55614 97 ft 7 kts 195°
2026-05-07 17:01 38.28377 -0.55680 99 ft 11 kts 274°
2026-05-07 17:01 38.28392 -0.55795 101 ft 16 kts 280°
2026-05-07 17:01 38.28415 -0.55962 104 ft 22 kts 280°
2026-05-07 17:01 38.28445 -0.56178 106 ft 28 kts 280°
2026-05-07 17:02 38.28480 -0.56424 113 ft 27 kts 280°
2026-05-07 17:02 38.28511 -0.56650 117 ft 25 kts 280°
2026-05-07 17:02 38.28541 -0.56862 126 ft 23 kts 280°
2026-05-07 17:02 38.28569 -0.57062 135 ft 23 kts 279°
2026-05-07 17:03 38.28596 -0.57256 144 ft 22 kts 280°
2026-05-07 17:03 38.28610 -0.57383 148 ft 10 kts 259°
2026-05-07 17:03 38.28567 -0.57427 150 ft 10 kts 193°
2026-05-07 17:03 38.28476 -0.57446 151 ft 13 kts 189°
2026-05-07 17:04 38.28441 -0.57419 150 ft 1 kts 99°
2026-05-07 17:04 38.28437 -0.57391 149 ft 6 kts 99°
2026-05-07 17:04 38.28401 -0.57130 137 ft 66 kts 100°
2026-05-07 17:04 38.28278 -0.56245 110 ft 133 kts 100°
2026-05-07 17:05 38.28081 -0.54874 297 ft 170 kts 102°
2026-05-07 17:05 38.27844 -0.53446 1149 ft 167 kts 101°
2026-05-07 17:05 38.27608 -0.51936 1722 ft 183 kts 98°
2026-05-07 17:05 38.27371 -0.50239 2084 ft 207 kts 92°
2026-05-07 17:06 38.27618 -0.48350 2277 ft 230 kts 69°
2026-05-07 17:06 38.28429 -0.46484 2695 ft 249 kts 56°
2026-05-07 17:06 38.29400 -0.44628 3546 ft 252 kts 55°
2026-05-07 17:06 38.30364 -0.42784 4571 ft 251 kts 56°
2026-05-07 17:07 38.31347 -0.40897 5328 ft 257 kts 56°
2026-05-07 17:07 38.32351 -0.38977 5666 ft 265 kts 56°
2026-05-07 17:07 38.33353 -0.36971 6383 ft 272 kts 63°
2026-05-07 17:07 38.34063 -0.34767 7254 ft 271 kts 70°
2026-05-07 17:08 38.34734 -0.32491 8036 ft 277 kts 69°
2026-05-07 17:08 38.35430 -0.30176 8857 ft 282 kts 69°
2026-05-07 17:08 38.36140 -0.27821 9646 ft 288 kts 69°
2026-05-07 17:08 38.36913 -0.25431 10271 ft 298 kts 68°
2026-05-07 17:09 38.37761 -0.22898 10469 ft 323 kts 67°
2026-05-07 17:09 38.38674 -0.20177 10764 ft 342 kts 67°
2026-05-07 17:09 38.39622 -0.17345 11365 ft 350 kts 68°
2026-05-07 17:09 38.40580 -0.14471 12083 ft 355 kts 67°
2026-05-07 17:10 38.41547 -0.11557 12826 ft 358 kts 68°
2026-05-07 17:10 38.42508 -0.08654 13866 ft 353 kts 68°
2026-05-07 17:10 38.43460 -0.05772 14674 ft 353 kts 68°
2026-05-07 17:10 38.44411 -0.02889 15420 ft 353 kts 68°
2026-05-07 17:11 38.45361 0.00003 15801 ft 353 kts 68°
2026-05-07 17:11 38.46295 0.02889 15913 ft 353 kts 68°
2026-05-07 17:11 38.47226 0.05788 15925 ft 354 kts 68°
2026-05-07 17:11 38.48163 0.08707 15928 ft 357 kts 69°
2026-05-07 17:12 38.49099 0.11624 15918 ft 351 kts 68°
2026-05-07 17:12 38.50010 0.14467 15912 ft 341 kts 68°
2026-05-07 17:12 38.50904 0.17255 15697 ft 339 kts 68°
2026-05-07 17:12 38.51791 0.20024 15474 ft 335 kts 68°
2026-05-07 17:13 38.52672 0.22775 15162 ft 334 kts 68°
2026-05-07 17:13 38.53547 0.25513 14858 ft 332 kts 69°
2026-05-07 17:13 38.54418 0.28240 14545 ft 331 kts 69°
2026-05-07 17:13 38.55288 0.30967 14196 ft 332 kts 68°
2026-05-07 17:14 38.56158 0.33693 13864 ft 331 kts 68°
2026-05-07 17:14 38.57023 0.36409 13512 ft 330 kts 68°
2026-05-07 17:14 38.57875 0.39089 13172 ft 329 kts 68°
2026-05-07 17:14 38.58736 0.41792 12836 ft 328 kts 68°
2026-05-07 17:15 38.59592 0.44488 12502 ft 327 kts 69°
2026-05-07 17:15 38.60446 0.47175 12162 ft 326 kts 69°
2026-05-07 17:15 38.61295 0.49848 11831 ft 324 kts 68°
2026-05-07 17:15 38.62153 0.52545 11498 ft 322 kts 68°
2026-05-07 17:16 38.62983 0.55154 11197 ft 320 kts 68°
2026-05-07 17:16 38.63819 0.57782 10878 ft 318 kts 69°
2026-05-07 17:16 38.64649 0.60394 10573 ft 316 kts 69°
2026-05-07 17:16 38.65471 0.62985 10273 ft 313 kts 68°
2026-05-07 17:17 38.66285 0.65554 10037 ft 308 kts 68°
2026-05-07 17:17 38.67007 0.68094 9854 ft 301 kts 78°
2026-05-07 17:17 38.67265 0.70688 9875 ft 287 kts 84°
2026-05-07 17:17 38.67439 0.73184 9834 ft 277 kts 85°
2026-05-07 17:18 38.67613 0.75619 9589 ft 274 kts 84°
2026-05-07 17:18 38.67794 0.78034 9272 ft 273 kts 85°
2026-05-07 17:18 38.67981 0.80455 8977 ft 272 kts 84°
2026-05-07 17:18 38.68173 0.82850 8729 ft 269 kts 84°
2026-05-07 17:19 38.68366 0.85234 8430 ft 269 kts 84°
2026-05-07 17:19 38.68559 0.87614 8163 ft 268 kts 84°
2026-05-07 17:19 38.68751 0.89971 7918 ft 265 kts 84°
2026-05-07 17:19 38.68941 0.92312 7644 ft 264 kts 84°
2026-05-07 17:20 38.69405 0.94550 7424 ft 260 kts 61°
2026-05-07 17:20 38.70294 0.96515 7323 ft 252 kts 60°
2026-05-07 17:20 38.71145 0.98428 7237 ft 243 kts 60°
2026-05-07 17:20 38.71958 1.00278 7096 ft 234 kts 61°
2026-05-07 17:21 38.72718 1.02083 6839 ft 228 kts 62°
2026-05-07 17:21 38.73449 1.03862 6578 ft 223 kts 62°
2026-05-07 17:21 38.74175 1.05630 6188 ft 224 kts 62°
2026-05-07 17:21 38.74895 1.07384 5877 ft 220 kts 62°
2026-05-07 17:22 38.75607 1.09120 5517 ft 219 kts 62°
2026-05-07 17:22 38.76289 1.10778 5261 ft 204 kts 62°
2026-05-07 17:22 38.76931 1.12319 4964 ft 190 kts 62°
2026-05-07 17:22 38.77528 1.13753 4647 ft 177 kts 62°
2026-05-07 17:23 38.78094 1.15119 4225 ft 173 kts 60°
2026-05-07 17:23 38.78662 1.16486 3756 ft 175 kts 60°
2026-05-07 17:23 38.79238 1.17873 3260 ft 178 kts 60°
2026-05-07 17:23 38.79826 1.19251 2900 ft 171 kts 58°
2026-05-07 17:24 38.80374 1.20541 2652 ft 161 kts 59°
2026-05-07 17:24 38.80880 1.21756 2465 ft 150 kts 59°
2026-05-07 17:24 38.81387 1.22983 2292 ft 167 kts 60°
2026-05-07 17:24 38.81926 1.24296 2033 ft 163 kts 60°
2026-05-07 17:25 38.82438 1.25539 1797 ft 152 kts 59°
2026-05-07 17:25 38.82923 1.26716 1616 ft 151 kts 57°
2026-05-07 17:25 38.83408 1.27900 1408 ft 148 kts 60°
2026-05-07 17:25 38.83887 1.29070 1218 ft 150 kts 59°
2026-05-07 17:26 38.84377 1.30259 1013 ft 150 kts 59°
2026-05-07 17:26 38.84863 1.31435 825 ft 148 kts 60°
2026-05-07 17:26 38.85333 1.32614 615 ft 148 kts 62°
2026-05-07 17:26 38.85829 1.33781 431 ft 149 kts 62°
2026-05-07 17:27 38.86306 1.34946 238 ft 145 kts 61°
2026-05-07 17:27 38.86772 1.36072 40 ft 141 kts 61°
2026-05-07 17:27 38.87168 1.37029 29 ft 93 kts 62°
2026-05-07 17:27 38.87378 1.37537 28 ft 48 kts 62°
2026-05-07 17:28 38.87499 1.37773 28 ft 11 kts 42°
2026-05-07 17:28 38.87559 1.37837 29 ft 11 kts 36°
2026-05-07 17:28 38.87633 1.37900 29 ft 14 kts 32°
2026-05-07 17:28 38.87688 1.37897 29 ft 9 kts 309°
2026-05-07 17:29 38.87678 1.37809 28 ft 13 kts 242°
2026-05-07 17:29 38.87625 1.37682 28 ft 20 kts 242°
2026-05-07 17:29 38.87607 1.37638 28 ft 7 kts 240°
2026-05-07 17:29 38.87568 1.37544 28 ft 17 kts 242°
2026-05-07 17:30 38.87496 1.37368 28 ft 27 kts 242°
2026-05-07 17:30 38.87405 1.37151 28 ft 29 kts 242°
2026-05-07 17:30 38.87326 1.36960 27 ft 18 kts 242°
2026-05-07 17:30 38.87306 1.36873 27 ft 9 kts 297°
2026-05-07 17:31 38.87369 1.36813 27 ft 15 kts 330°
2026-05-07 17:31 38.87436 1.36793 27 ft 7 kts 46°
2026-05-07 17:31 38.87470 1.36868 27 ft 12 kts 62°
2026-05-07 17:31 38.87505 1.36950 27 ft 8 kts 60°
2026-05-07 17:32 38.87519 1.36957 27 ft 5 kts 14°
2026-05-07 17:32 38.87556 1.36943 27 ft 4 kts 332°
2026-05-07 17:32 38.87572 1.36932 27 ft 1 kts 333°
2026-05-07 17:32 38.87574 1.36931 27 ft 0 kts 333°